THOR ABLESTAR DEB, 323

Orbit data source: Space-Track

THOR ABLESTAR DEB, 323 is space debris in LEO originally from a launch on Thu, 29 Jun 1961 UTC launched from the Air Force Eastern Test Range (AFETR). Debris objects in space refer to the collection of defunct objects orbiting the Earth. Examples of debris include non-operational satellites, rocket bodies, and fragments generated from explosions, collisions, or faulty payload assembly.

Loading next visibility...
Identifier
323, 1961-015CZ
Orbit
LEO
Country
Flag of USUS
Related business
Manufacturer
Unknown
Mission
Spacecraft
Bus & Motor
Unknown
Mass
Unknown
Launch date (UTC)
1961-06-29 (65 years ago)
Launch vehicle
Unknown
Launch site
Air Force Eastern Test Range (AFETR)
Object type
Payload
Rocket body
Debris
Shape & HBR
Unknown shape, 0.1 m
Radar Cross Section
Medium (>0.1 m² and <1 m²)

Expand to show TLE details & history
Last TLE update: 21 hours ago

TLE from 21 hours ago
0 THOR ABLESTAR DEB
1 00323U 61015CZ  26195.81723795 -.00000086  00000-0 -23109-5 0  9992
2 00323  66.8386  29.2262 0069680  64.8213 296.0084 14.16477158332385
Epoch: 2026-07-14T19:36Z
TLE epoch observation values (Epoch: 2026-07-14T19:36:49.358Z)
Latitude
-0.00004°
Longitude
162.33857°
Altitude
817.631 km
Speed
7.456 km/s
True Right ascension
01h 56m 54s
True Declination
0° 00' 00"
Sunlit
Object was in daylight at epoch
Visualization orbit readout
Latitude
Unknown
Longitude
Unknown
Altitude
Unknown
Speed
Unknown
Apparent Right ascension
Unknown
Apparent Declination
Unknown
Sunlit
N/A
Visualization observer readout
Local Sidereal Time
04:41:33
Azimuth
Unknown
Elevation
Unknown
Doppler factor
Unknown
Orbital elements
Apogee altitude
885.926 km
Perigee altitude
785.395 km
Semi-major axis
7,213.798 km
Eccentricity
0.00697
Inclination
66.8386°
RAAN
29.2262°
Arg. of periapsis
64.8213°
True anomaly
295.28806°
Mean anomaly
296.0084°
Eccentric anomaly
295.6485°
Mean motion
3.5424 °/min
Orbital period
101.63 mins
BSTAR
-0.0000023109

Documentation

Showing up to 5 results
|